Time,TemperatureF,DewpointF,PressureIn,WindDirection,WindDirectionDegrees,WindSpeedMPH,WindSpeedGustMPH,Humidity,HourlyPrecipIn,Conditions,Clouds,dailyrainin,SoftwareType,DateUTC
2013-02-18 00:02:00,17.0,4.0,29.82,West,277,3.0,19.0,55,0.00,,,0.01,,2013-02-18 05:02:00,
2013-02-18 00:11:00,17.0,4.0,29.82,West,277,3.0,19.0,55,0.00,,,0.01,,2013-02-18 05:11:00,
2013-02-18 00:21:00,17.0,4.0,29.83,NW,308,9.0,19.0,55,0.00,,,0.01,,2013-02-18 05:21:00,
2013-02-18 00:32:00,17.0,4.0,29.83,WNW,285,10.0,20.0,55,0.00,,,0.01,,2013-02-18 05:32:00,
2013-02-18 00:42:00,17.0,4.0,29.83,WNW,285,10.0,20.0,55,0.00,,,0.01,,2013-02-18 05:42:00,
2013-02-18 00:52:00,17.0,4.0,29.84,WNW,283,4.0,20.0,56,0.00,,,0.01,,2013-02-18 05:52:00,
2013-02-18 01:02:00,17.0,4.0,29.84,West,271,3.0,20.0,56,0.00,,,0.01,,2013-02-18 06:02:00,
2013-02-18 01:11:00,17.0,4.0,29.84,West,271,3.0,20.0,56,0.00,,,0.01,,2013-02-18 06:11:00,
2013-02-18 01:21:00,17.0,4.0,29.85,WSW,247,16.0,20.0,57,0.00,,,0.01,,2013-02-18 06:21:00,
2013-02-18 01:32:00,17.0,4.0,29.85,West,273,12.0,15.0,57,0.00,,,0.01,,2013-02-18 06:32:00,
2013-02-18 01:42:00,17.0,5.0,29.86,WNW,283,19.0,19.0,58,0.00,,,0.01,,2013-02-18 06:42:00,
2013-02-18 01:51:00,17.0,5.0,29.86,WNW,283,19.0,19.0,58,0.00,,,0.01,,2013-02-18 06:51:00,
2013-02-18 02:02:00,17.0,5.0,29.86,West,281,6.0,15.0,58,0.00,,,0.01,,2013-02-18 07:02:00,
2013-02-18 02:11:00,17.0,5.0,29.86,West,281,6.0,15.0,58,0.00,,,0.01,,2013-02-18 07:11:00,
2013-02-18 02:22:00,16.0,4.0,29.87,WNW,295,5.0,15.0,58,0.00,,,0.01,,2013-02-18 07:22:00,
2013-02-18 02:32:00,16.0,4.0,29.88,West,276,5.0,13.0,59,0.00,,,0.01,,2013-02-18 07:32:00,
2013-02-18 02:42:00,16.0,4.0,29.88,West,276,5.0,13.0,59,0.00,,,0.01,,2013-02-18 07:42:00,
2013-02-18 02:52:00,16.0,4.0,29.88,WNW,285,8.0,13.0,59,0.00,,,0.01,,2013-02-18 07:52:00,
2013-02-18 03:01:00,16.0,4.0,29.89,NW,306,7.0,13.0,58,0.00,,,0.01,,2013-02-18 08:01:00,
2013-02-18 03:11:00,16.0,4.0,29.89,WNW,283,2.0,13.0,58,0.00,,,0.01,,2013-02-18 08:11:00,
2013-02-18 03:21:00,16.0,4.0,29.89,WNW,283,2.0,13.0,58,0.00,,,0.01,,2013-02-18 08:21:00,
2013-02-18 03:32:00,16.0,4.0,29.89,West,268,11.0,18.0,58,0.00,,,0.01,,2013-02-18 08:32:00,
2013-02-18 03:42:00,16.0,4.0,29.89,West,268,11.0,18.0,58,0.00,,,0.01,,2013-02-18 08:42:00,
2013-02-18 03:52:00,16.0,3.0,29.90,WSW,257,7.0,18.0,57,0.00,,,0.01,,2013-02-18 08:52:00,
2013-02-18 04:03:00,16.0,3.0,29.91,West,278,21.0,21.0,56,0.00,,,0.01,,2013-02-18 09:03:00,
2013-02-18 04:11:00,16.0,3.0,29.91,West,278,21.0,21.0,56,0.00,,,0.01,,2013-02-18 09:11:00,
2013-02-18 04:22:00,16.0,3.0,29.91,West,278,21.0,21.0,56,0.00,,,0.01,,2013-02-18 09:22:00,
2013-02-18 04:32:00,16.0,3.0,29.92,WNW,288,11.0,15.0,57,0.00,,,0.01,,2013-02-18 09:32:00,
2013-02-18 04:42:00,16.0,3.0,29.92,WNW,288,11.0,15.0,57,0.00,,,0.01,,2013-02-18 09:42:00,
2013-02-18 04:52:00,16.0,3.0,29.93,NW,312,22.0,22.0,57,0.00,,,0.01,,2013-02-18 09:52:00,
2013-02-18 05:01:00,16.0,3.0,29.93,NW,312,22.0,22.0,57,0.00,,,0.01,,2013-02-18 10:01:00,
2013-02-18 05:11:00,16.0,3.0,29.93,NW,312,22.0,22.0,57,0.00,,,0.01,,2013-02-18 10:11:00,
2013-02-18 05:22:00,16.0,3.0,29.96,West,268,8.0,15.0,56,0.00,,,0.01,,2013-02-18 10:22:00,
2013-02-18 05:32:00,16.0,3.0,29.96,WNW,290,4.0,16.0,57,0.00,,,0.01,,2013-02-18 10:32:00,
2013-02-18 05:42:00,16.0,3.0,29.96,WNW,290,4.0,16.0,57,0.00,,,0.01,,2013-02-18 10:42:00,
2013-02-18 05:52:00,16.0,3.0,29.96,WNW,290,4.0,16.0,57,0.00,,,0.01,,2013-02-18 10:52:00,
2013-02-18 06:02:00,16.0,3.0,29.98,WNW,303,6.0,16.0,57,0.00,,,0.01,,2013-02-18 11:02:00,
2013-02-18 06:11:00,16.0,3.0,29.98,WNW,303,6.0,16.0,57,0.00,,,0.01,,2013-02-18 11:11:00,
2013-02-18 06:22:00,16.0,3.0,29.99,WNW,294,8.0,16.0,57,0.00,,,0.01,,2013-02-18 11:22:00,
2013-02-18 06:32:00,16.0,3.0,29.99,West,279,9.0,17.0,57,0.00,,,0.01,,2013-02-18 11:32:00,
2013-02-18 06:42:00,16.0,3.0,29.99,West,279,9.0,17.0,57,0.00,,,0.01,,2013-02-18 11:42:00,
2013-02-18 06:52:00,16.0,3.0,30.01,West,272,3.0,17.0,57,0.00,,,0.01,,2013-02-18 11:52:00,
2013-02-18 07:02:00,16.0,3.0,30.02,WNW,300,4.0,17.0,57,0.00,,,0.01,,2013-02-18 12:02:00,
2013-02-18 07:12:00,16.0,3.0,30.02,WNW,300,4.0,17.0,57,0.00,,,0.01,,2013-02-18 12:12:00,
2013-02-18 07:22:00,16.0,3.0,30.03,West,272,9.0,17.0,56,0.00,,,0.01,,2013-02-18 12:22:00,
2013-02-18 07:32:00,16.0,3.0,30.03,West,272,9.0,17.0,56,0.00,,,0.01,,2013-02-18 12:32:00,
2013-02-18 07:42:00,16.0,3.0,30.03,West,272,9.0,17.0,56,0.00,,,0.01,,2013-02-18 12:42:00,
2013-02-18 07:53:00,16.0,3.0,30.05,West,268,10.0,10.0,56,0.00,,,0.01,,2013-02-18 12:53:00,
2013-02-18 08:03:00,16.0,3.0,30.05,West,268,10.0,10.0,56,0.00,,,0.01,,2013-02-18 13:03:00,
2013-02-18 08:12:00,16.0,3.0,30.05,West,268,10.0,10.0,56,0.00,,,0.01,,2013-02-18 13:12:00,
2013-02-18 08:22:00,17.0,4.0,30.07,West,276,6.0,10.0,55,0.00,,,0.01,,2013-02-18 13:22:00,
2013-02-18 08:32:00,17.0,3.0,30.09,WNW,294,3.0,13.0,54,0.00,,,0.01,,2013-02-18 13:32:00,
2013-02-18 08:42:00,17.0,3.0,30.09,WNW,294,3.0,13.0,54,0.00,,,0.01,,2013-02-18 13:42:00,
2013-02-18 08:53:00,18.0,4.0,30.10,NW,326,11.0,13.0,53,0.00,,,0.01,,2013-02-18 13:53:00,
2013-02-18 09:02:00,18.0,3.0,30.10,NW,307,11.0,13.0,52,0.00,,,0.01,,2013-02-18 14:02:00,
2013-02-18 09:12:00,18.0,3.0,30.10,NW,307,11.0,13.0,52,0.00,,,0.01,,2013-02-18 14:12:00,
2013-02-18 09:22:00,19.0,4.0,30.10,WNW,295,12.0,13.0,51,0.00,,,0.01,,2013-02-18 14:22:00,
2013-02-18 09:33:00,19.0,4.0,30.10,WNW,295,12.0,13.0,51,0.00,,,0.01,,2013-02-18 14:33:00,
2013-02-18 09:42:00,19.0,4.0,30.10,WNW,295,12.0,13.0,51,0.00,,,0.01,,2013-02-18 14:42:00,
2013-02-18 09:53:00,20.0,5.0,30.10,North,352,12.0,23.0,51,0.00,,,0.01,,2013-02-18 14:53:00,
2013-02-18 10:02:00,20.0,5.0,30.10,North,352,12.0,23.0,51,0.00,,,0.01,,2013-02-18 15:02:00,
2013-02-18 10:12:00,20.0,5.0,30.10,North,352,12.0,23.0,51,0.00,,,0.01,,2013-02-18 15:12:00,
2013-02-18 10:22:00,21.0,5.0,30.11,NW,314,4.0,23.0,49,0.00,,,0.01,,2013-02-18 15:22:00,
2013-02-18 10:32:00,21.0,5.0,30.11,NW,314,4.0,23.0,49,0.00,,,0.01,,2013-02-18 15:32:00,
2013-02-18 10:42:00,21.0,5.0,30.11,NW,314,4.0,23.0,49,0.00,,,0.01,,2013-02-18 15:42:00,
2013-02-18 10:52:00,23.0,3.0,30.13,NW,307,14.0,14.0,42,0.00,,,0.01,,2013-02-18 15:52:00,
2013-02-18 11:03:00,24.0,4.0,30.12,NNW,327,5.0,11.0,41,0.00,,,0.01,,2013-02-18 16:03:00,
2013-02-18 11:12:00,24.0,4.0,30.12,NNW,327,5.0,11.0,41,0.00,,,0.01,,2013-02-18 16:12:00,
2013-02-18 11:22:00,24.0,3.0,30.13,WNW,298,10.0,11.0,40,0.00,,,0.01,,2013-02-18 16:22:00,
2013-02-18 11:32:00,25.0,4.0,30.14,NW,314,6.0,14.0,39,0.00,,,0.01,,2013-02-18 16:32:00,
2013-02-18 11:42:00,25.0,4.0,30.14,NW,314,6.0,14.0,39,0.00,,,0.01,,2013-02-18 16:42:00,
2013-02-18 11:52:00,25.0,2.0,30.14,WNW,282,6.0,14.0,37,0.00,,,0.01,,2013-02-18 16:52:00,
2013-02-18 12:04:00,26.0,4.0,30.14,West,273,4.0,14.0,38,0.00,,,0.01,,2013-02-18 17:04:00,
2013-02-18 12:12:00,26.0,4.0,30.14,West,273,4.0,14.0,38,0.00,,,0.01,,2013-02-18 17:12:00,
2013-02-18 12:22:00,27.0,4.0,30.15,WNW,289,9.0,14.0,37,0.00,,,0.01,,2013-02-18 17:22:00,
2013-02-18 12:33:00,27.0,5.0,30.14,WNW,289,15.0,17.0,38,0.00,,,0.01,,2013-02-18 17:33:00,
2013-02-18 12:42:00,27.0,5.0,30.14,WNW,289,15.0,17.0,38,0.00,,,0.01,,2013-02-18 17:42:00,
2013-02-18 12:53:00,27.0,5.0,30.14,West,273,8.0,17.0,38,0.00,,,0.01,,2013-02-18 17:53:00,
2013-02-18 13:02:00,27.0,5.0,30.15,West,274,9.0,17.0,38,0.00,,,0.01,,2013-02-18 18:02:00,
2013-02-18 13:12:00,27.0,5.0,30.15,West,274,9.0,17.0,38,0.00,,,0.01,,2013-02-18 18:12:00,
2013-02-18 13:23:00,27.0,3.0,30.14,West,277,6.0,17.0,35,0.00,,,0.01,,2013-02-18 18:23:00,
2013-02-18 13:33:00,28.0,4.0,30.15,WNW,287,6.0,10.0,35,0.00,,,0.01,,2013-02-18 18:33:00,
2013-02-18 13:42:00,28.0,4.0,30.15,WNW,287,6.0,10.0,35,0.00,,,0.01,,2013-02-18 18:42:00,
2013-02-18 13:52:00,29.0,4.0,30.15,West,279,0.0,10.0,34,0.00,,,0.01,,2013-02-18 18:52:00,
2013-02-18 14:03:00,29.0,4.0,30.15,West,279,0.0,10.0,34,0.00,,,0.01,,2013-02-18 19:03:00,
2013-02-18 14:12:00,29.0,4.0,30.15,West,279,0.0,10.0,34,0.00,,,0.01,,2013-02-18 19:12:00,
2013-02-18 14:22:00,29.0,4.0,30.15,West,281,4.0,10.0,34,0.00,,,0.01,,2013-02-18 19:22:00,
2013-02-18 14:33:00,30.0,4.0,30.15,WNW,296,6.0,10.0,32,0.00,,,0.01,,2013-02-18 19:33:00,
2013-02-18 14:43:00,30.0,4.0,30.15,WNW,296,6.0,10.0,32,0.00,,,0.01,,2013-02-18 19:43:00,
2013-02-18 14:52:00,30.0,4.0,30.15,WNW,295,9.0,10.0,33,0.00,,,0.01,,2013-02-18 19:52:00,
2013-02-18 15:02:00,30.0,4.0,30.15,WNW,295,9.0,10.0,33,0.00,,,0.01,,2013-02-18 20:02:00,
2013-02-18 15:12:00,30.0,4.0,30.15,WNW,295,9.0,10.0,33,0.00,,,0.01,,2013-02-18 20:12:00,
2013-02-18 15:23:00,31.0,5.0,30.14,West,277,5.0,10.0,32,0.00,,,0.01,,2013-02-18 20:23:00,
2013-02-18 15:33:00,32.0,5.0,30.14,WNW,293,11.0,16.0,31,0.00,,,0.01,,2013-02-18 20:33:00,
2013-02-18 15:43:00,32.0,5.0,30.14,WNW,293,11.0,16.0,31,0.00,,,0.01,,2013-02-18 20:43:00,
2013-02-18 15:53:00,32.0,5.0,30.14,WNW,293,11.0,16.0,31,0.00,,,0.01,,2013-02-18 20:53:00,
2013-02-18 16:03:00,32.0,5.0,30.14,WNW,285,4.0,16.0,31,0.00,,,0.01,,2013-02-18 21:03:00,
2013-02-18 16:12:00,32.0,5.0,30.14,WNW,285,4.0,16.0,31,0.00,,,0.01,,2013-02-18 21:12:00,
2013-02-18 16:22:00,32.0,4.0,30.15,West,276,3.0,16.0,30,0.00,,,0.01,,2013-02-18 21:22:00,
2013-02-18 16:33:00,32.0,4.0,30.15,West,270,6.0,9.0,30,0.00,,,0.01,,2013-02-18 21:33:00,
2013-02-18 16:42:00,32.0,4.0,30.15,West,270,6.0,9.0,30,0.00,,,0.01,,2013-02-18 21:42:00,
2013-02-18 16:52:00,32.0,4.0,30.15,WNW,299,4.0,9.0,30,0.00,,,0.01,,2013-02-18 21:52:00,
2013-02-18 17:03:00,32.0,4.0,30.16,West,275,3.0,9.0,30,0.00,,,0.01,,2013-02-18 22:03:00,
2013-02-18 17:13:00,32.0,4.0,30.16,West,275,3.0,9.0,30,0.00,,,0.01,,2013-02-18 22:13:00,
2013-02-18 17:22:00,32.0,4.0,30.16,West,275,3.0,9.0,30,0.00,,,0.01,,2013-02-18 22:22:00,
2013-02-18 17:33:00,31.0,5.0,30.18,West,264,0.0,5.0,32,0.00,,,0.01,,2013-02-18 22:33:00,
2013-02-18 17:43:00,31.0,5.0,30.18,West,264,0.0,5.0,32,0.00,,,0.01,,2013-02-18 22:43:00,
2013-02-18 17:54:00,30.0,4.0,30.19,West,272,2.0,5.0,33,0.00,,,0.01,,2013-02-18 22:54:00,
2013-02-18 18:03:00,30.0,5.0,30.19,West,269,2.0,5.0,34,0.00,,,0.01,,2013-02-18 23:03:00,
2013-02-18 18:12:00,30.0,5.0,30.19,West,269,2.0,5.0,34,0.00,,,0.01,,2013-02-18 23:12:00,
2013-02-18 18:23:00,30.0,6.0,30.19,West,265,0.0,5.0,35,0.00,,,0.01,,2013-02-18 23:23:00,
2013-02-18 18:33:00,29.0,5.0,30.20,WSW,249,5.0,0.0,36,0.00,,,0.01,,2013-02-18 23:33:00,
2013-02-18 18:43:00,29.0,5.0,30.20,WSW,249,5.0,0.0,36,0.00,,,0.01,,2013-02-18 23:43:00,
2013-02-18 18:52:00,29.0,6.0,30.21,WSW,241,2.0,0.0,37,0.00,,,0.01,,2013-02-18 23:52:00,
2013-02-18 19:03:00,29.0,6.0,30.22,WSW,244,0.0,0.0,37,0.00,,,0.01,,2013-02-19 00:03:00,
2013-02-18 19:12:00,29.0,6.0,30.22,WSW,244,0.0,0.0,37,0.00,,,0.01,,2013-02-19 00:12:00,
2013-02-18 19:22:00,28.0,6.0,30.22,WSW,245,0.0,0.0,38,0.00,,,0.01,,2013-02-19 00:22:00,
2013-02-18 19:34:00,28.0,6.0,30.22,WSW,245,0.0,0.0,38,0.00,,,0.01,,2013-02-19 00:34:00,
2013-02-18 19:43:00,28.0,6.0,30.22,WSW,245,0.0,0.0,38,0.00,,,0.01,,2013-02-19 00:43:00,
2013-02-18 19:53:00,28.0,7.0,30.22,WSW,245,0.0,0.0,40,0.00,,,0.01,,2013-02-19 00:53:00,
2013-02-18 20:03:00,28.0,8.0,30.23,WSW,245,0.0,0.0,42,0.00,,,0.01,,2013-02-19 01:03:00,
2013-02-18 20:14:00,28.0,8.0,30.23,WSW,245,0.0,0.0,42,0.00,,,0.01,,2013-02-19 01:14:00,
2013-02-18 20:24:00,28.0,7.0,30.23,WSW,240,0.0,0.0,41,0.00,,,0.01,,2013-02-19 01:24:00,
2013-02-18 20:35:00,28.0,7.0,30.23,WSW,241,0.0,0.0,41,0.00,,,0.01,,2013-02-19 01:35:00,
2013-02-18 20:44:00,28.0,7.0,30.23,WSW,241,0.0,0.0,41,0.00,,,0.01,,2013-02-19 01:44:00,
2013-02-18 20:56:00,28.0,7.0,30.23,WSW,241,0.0,0.0,41,0.00,,,0.01,,2013-02-19 01:56:00,
2013-02-18 21:03:00,28.0,7.0,30.23,WSW,241,0.0,0.0,41,0.00,,,0.01,,2013-02-19 02:03:00,
2013-02-18 21:14:00,28.0,7.0,30.23,WSW,241,0.0,0.0,41,0.00,,,0.01,,2013-02-19 02:14:00,
2013-02-18 21:23:00,28.0,7.0,30.24,WSW,241,0.0,0.0,41,0.00,,,0.01,,2013-02-19 02:23:00,
2013-02-18 21:35:00,28.0,7.0,30.24,WSW,241,0.0,0.0,41,0.00,,,0.01,,2013-02-19 02:35:00,
2013-02-18 21:43:00,28.0,7.0,30.24,WSW,241,0.0,0.0,41,0.00,,,0.01,,2013-02-19 02:43:00,
2013-02-18 21:53:00,27.0,8.0,30.24,WSW,241,0.0,0.0,43,0.00,,,0.01,,2013-02-19 02:53:00,
2013-02-18 22:07:00,26.0,8.0,30.24,WSW,241,0.0,0.0,45,0.00,,,0.01,,2013-02-19 03:07:00,
2013-02-18 22:15:00,26.0,8.0,30.24,WSW,241,0.0,0.0,45,0.00,,,0.01,,2013-02-19 03:15:00,
2013-02-18 22:24:00,26.0,9.0,30.24,WSW,241,0.0,0.0,48,0.00,,,0.01,,2013-02-19 03:24:00,
2013-02-18 22:35:00,26.0,9.0,30.25,WSW,241,0.0,0.0,49,0.00,,,0.01,,2013-02-19 03:35:00,
2013-02-18 22:44:00,26.0,9.0,30.25,WSW,241,0.0,0.0,49,0.00,,,0.01,,2013-02-19 03:44:00,
2013-02-18 22:53:00,26.0,9.0,30.25,WSW,241,0.0,0.0,49,0.00,,,0.01,,2013-02-19 03:53:00,
2013-02-18 23:03:00,26.0,10.0,30.24,WSW,241,0.0,0.0,51,0.00,,,0.01,,2013-02-19 04:03:00,
2013-02-18 23:14:00,26.0,10.0,30.24,WSW,241,0.0,0.0,51,0.00,,,0.01,,2013-02-19 04:14:00,
2013-02-18 23:24:00,26.0,11.0,30.25,WSW,241,0.0,0.0,52,0.00,,,0.01,,2013-02-19 04:24:00,
2013-02-18 23:34:00,27.0,12.0,30.24,WSW,241,0.0,0.0,53,0.00,,,0.00,,2013-02-19 04:34:00,
2013-02-18 23:44:00,27.0,12.0,30.24,WSW,241,0.0,0.0,53,0.00,,,0.00,,2013-02-19 04:44:00,
2013-02-18 23:53:00,27.0,13.0,30.25,WSW,241,0.0,0.0,54,0.00,,,0.00,,2013-02-19 04:53:00,